www.pogodaiklimat.ru

Погода и климат >> Архив погоды >> Панама >> Сантьяго


ПОГОДА в Сантьяго

  • Прогноз погоды в Сантьяго
  • Монитор погоды в Сантьяго

АРХИВ ПОГОДЫ в Сантьяго

Время (UTC), дата Ветер
(напр.,м/с)
 
Видим.   Явления Облачность Т
(С)
Тd
(С)
f
(%)
Тe
(С)
Тes
(С)
Комфортность P
(гПа)
Po
(гПа)
Тmin
(С)
Tmax
(С)
R
(мм)
R24
(мм)
S
(см)
12 17.07 штиль 0 20 км 5/1 240 м
[St Ci fib]
+22.2 +21.4 95 +29 +30 очень
душно
1010.9 1000.9 +22.2 +32.8
15 17.07 штиль 0 20 км 5/1 360 м
[Cu hum Ci fib]
+29.4 +23.6 71 +40 +56 опасность
солнечного
удара
1010.8 1000.8
18 17.07 штиль 0 20 км 4/4 450 м
[Cu hum]
+33.0 +23.4 57 +44 +60 опасность
перегрева
1011.1 1001.1 +22.2 +33.4
21 17.07 штиль 0 20 км 4/4 600 м
[Cu med, cong]
+34.0 +23.0 53 +44 +51 опасность
перегрева
1009.6 999.6
00 18.07 штиль 0 15 км в посл. час гроза {метель} 8/4 360 м
[Sc diur, vesp Ci fib]
+27.0 +23.7 82 +37 +37 очень
душно
1009.3 999.3 +22.2 +35.0
12 18.07 штиль 0 1000 м туман 8/8 120 м
[St]
+24.0 +23.2 95 +32 +32 очень
душно
1009.6 999.6 +23.4 +35.0
15 18.07 штиль 0 15 км 8/4 300 м
[Cu hum Ci fib]
+30.0 +24.6 73 +43 +53 опасность
перегрева
1010.4 1000.4
18 18.07 штиль 0 20 км 8/4 450 м
[Cu med, cong Ci fib]
+33.0 +24.1 60 +45 +60 опасность
перегрева
1010.1 1000.1 +23.4 +33.8
21 18.07 штиль 0 20 км 10/4 450 м
[Cu med, cong Ci fib]
+34.8 +23.7 53 +46 +51 опасность
перегрева
1008.5 998.5
00 19.07 штиль 0 8000 м гроза без осадков 10/8 150 м
[Cb calv As op]
+25.0 +24.2 95 +34 +34 очень
душно
1008.3 998.3 +23.4 +35.0 1
12 19.07 штиль 0 20 км 6/1 300 м
[Sc Ci fib]
+24.0 +23.2 95 +32 +33 очень
душно
1009.7 999.7 +23.0 +35.0
15 19.07 штиль 0 20 км 8/4 450 м
[Cu hum Ci fib]
+29.4 +24.8 76 +42 +52 опасность
перегрева
1010.3 1000.3
18 19.07 штиль 0 20 км 9/3 450 м
[Cu med, cong Ac lent]
+31.4 +24.7 68 +45 +51 опасность
перегрева
1009.2 999.2 +23.0 +33.4
21 19.07 штиль 0 9000 м гроза без осадков 8/8 300 м
[Cb calv]
+31.4 +25.2 70 +45 +48 опасность
перегрева
1007.9 997.9
00 20.07 штиль 0 20 км 10/3 300 м
[Sc diur, vesp As op]
+25.0 +24.2 95 +34 +34 очень
душно
1008.2 998.2 +23.0 +33.6 16
12 20.07 штиль 0 15 км в посл. час туман 3/3 300 м
[St]
+23.4 +22.0 92 +32 +33 очень
душно
1008.4 998.4 +23.2 +33.6
15 20.07 штиль 0 20 км 3/3 400 м
[Cu hum]
+29.8 +25.2 76 +43 +57 опасность
перегрева
1009.0 999.0
18 20.07 штиль 0 20 км 3/3 450 м
[Cu med, cong]
+32.8 +24.7 62 +46 +65 опасность
перегрева
1007.6 997.6 +23.2 +33.4
21 20.07 СЗ 2 8000 м слаб. морось 6/6 450 м
[Cu med, cong]
+31.6 +24.6 66 +44 +47 опасность
перегрева
1007.4 997.4
00 21.07 штиль 0 20 км 10/4 300 м
[Sc diur, vesp Ci fib]
+28.8 +23.3 72 +39 +39 очень
душно
1007.4 997.4 +23.2 +34.8 0.3
12 21.07 штиль 0 500 м туман ясно +23.6 +22.2 92 +31 +32 очень
душно
1007.8 997.8 +23.6 +34.8
15 21.07 штиль 0 20 км 10/4 360 м
[Cu hum Ci fib]
+28.8 +22.7 70 +38 +47 очень
душно
1008.3 998.3
18 21.07 штиль 0 20 км 10/4 450 м
[Cu med, cong Ci fib]
+31.6 +25.8 71 +47 +60 опасность
перегрева
1007.7 997.7 +23.6 +32.6
21 21.07 штиль 0 20 км 10/4 450 м
[Cu med, cong Ci fib]
+32.6 +25.5 66 +47 +52 опасность
перегрева
1007.6 997.6
00 22.07 штиль 0 8000 м гроза без осадков 10/4 300 м
[Cb calv As op]
+25.2 +23.3 89 +34 +34 очень
душно
1007.5 997.5 +23.6 +33.6
12 22.07 штиль 0 9000 м дымка {туман} 9/3 240 м
[St Ac trans]
+23.4 +22.3 94 +32 +33 очень
душно
1009.3 999.3 +23.2 +33.6
15 22.07 штиль 0 20 км 10/5 300 м
[Cu hum Ac trans]
+27.8 +24.8 84 +40 +44 очень
душно
1011.3 1001.3
18 22.07 ЮЗ 2 5000 м гроза без осадков 10/5 300 м
[Cu med, cong As op]
+28.4 +24.9 81 +41 +43 опасность
перегрева
1010.1 1000.1 +23.2 +28.6
21 22.07 штиль 0 5000 м гроза без осадков 10/5 150 м
[Cb calv As op]
+23.8 +22.9 95 +32 +33 очень
душно
1010.2 1000.2
00 23.07 ЮЗ 3 9000 м осадки на расстоянии {гроза} 10/4 150 м
[Sc diur, vesp As op]
+23.2 +22.6 96 +32 +32 очень
душно
1010.8 1000.8 +23.2 +28.6 2
12 23.07 штиль 0 12 км в посл. час туман 9/3 240 м
[St Ci fib]
+23.0 +22.1 95 +31 +32 очень
душно
1012.3 1002.3 +23.0 +28.6
15 23.07 штиль 0 15 км осадки на расстоянии ясно +27.6 +24.9 85 +39 +59 опасность
солнечного
удара
1012.5 1002.5
18 23.07 штиль 0 20 км 10/6 450 м
[Cu med, cong Ac trans]
+29.0 +24.4 76 +41 +45 опасность
перегрева
1012.4 1002.4 +23.0 +31.0
21 23.07 штиль 0 4000 м гроза, ливневой дождь {метель} 10/5 300 м
[Cb calv As op]
+24.0 +22.6 92 +31 +33 очень
душно
1012.2 1002.2
00 24.07 штиль 0 6000 м слаб. дождь {гроза} 10/3 300 м
[Sc As op]
+23.4 +22.9 97 +33 +33 очень
душно
1012.2 1002.2 +23.0 +31.0 9

 

Местоположение метеостанции Сантьяго (Панама): широта 8.08 долгота -80.95 высота над уровнем моря 88 м.

В архиве по умолчанию представлена погода в Сантьяго за последнюю неделю. Архивные данные за месяц целиком и за предыдущие месяцы, начиная с января 2011 года, Вы можете получить, выбрав интересующий диапазон дат из раскрывающегося списка и нажав кнопку "Ввод!".


*Определитесь, кто Вы:
робот инопланетянин человек

Внимание! Время в таблицах - всемирное. Для получения местного времени необходимо прибавить поправку, которая равна -5 ч.

Смотрите также архив погоды в соседних городах и на ближайших метеорологических станциях:

Погода в Давиде (Панама) (165 км)
Погода в Пуэрто-Лимоне (Коста-Рика) (314 км)
Погода в Сан-Хосе аэропорту (Коста-Рика) (408 км)
Погода в Сан-Хосе (Коста-Рика) (416 км)
Погода в Апартадо (Колумбия) (469 км)
Погода на Острове Сан-Андрес (Колумбия) (507 км)
Погода в Блуфилдсе (Никарагуа) (534 км)
Погода в Кибдо (Колумбия) (546 км)
Погода в Либерии (Коста-Рика) (567 км)
Погода в Монтерии (Колумбия) (567 км)

Пояснения к столбцам:

Ветер - указаны скорость ветра в м/с - средняя за 10 мин, порывы в срок и между сроками (в фигурных скобках) и направление, откуда дует ветер: С - северный, СВ - северо-восточный, В - восточный, ЮВ - юго-восточный, Ю - южный, ЮЗ - юго-западный, З - западный, СЗ - северо-западный.
Видимость - горизонтальная дальность видимости в метрах или километрах. При видимости от 1 до 10 км при отсутствии осадков обычно наблюдается дымка, при ухудшении видимости до 1 км и менее - туман. В сухую погоду видимость может ухудшаться дымом, пылью или мглою.
Явления - указаны атмосферные явления, наблюдавшиеся в срок или в последний час перед сроком; фигурными скобками обозначены явления, наблюдавшиеся между сроками (за 1-3 часа до срока); квадратными скобками обозначены град или гололедные отложения с указанием их диаметра в мм.
Облачность - указаны через наклонную черту общая и нижняя облачность в баллах и высота нижней границы облаков в метрах; квадратными скобками обозначены формы облаков: Ci - перистые, Cs - перисто-слоистые, Cc - перисто-кучевые, Ac - высококучевые, As - высокослоистые, Sc - слоисто-кучевые, Ns - слоисто-дождевые, Cu - кучевые, Cb - кучево-дождевые. Подробнее классификацию облаков см. в Атласе облаков (PDF).
T - Температура воздуха - температура, измеренная на высоте 2 м над землей.
Td - Температура точки росы - температура, при понижении до которой содержащийся в воздухе водяной пар достигнет насыщения.
f - Относительная влажность воздуха - влажноcть воздуха, измеренная на высоте 2 м над землей.
Te - Эффективная температура - температура, которую ощущает одетый по сезону человек в тени. Характеристика душности погоды. При расчете учитывается влияние влажности воздуха и скорости ветра на теплоощущения человека.
Tes - Эффективная температура на солнце - температура, которую ощущает человек, с поправкой на солнечный нагрев. Характеристика знойности погоды. Зависит от высоты солнца над горизонтом, облачности и скорости ветра. Ночью, в пасмурную погоду, а также при ветре 12 м/с и более поправка равна нулю.
P - Атмосферное давление - приведенное к уровню моря атмосферное давление.
Po - Атмосферное давление - измеренное на уровне метеостанции атмосферное давление.
Tmin - Минимальная температура - минимум температуры воздуха на высоте 2 м над землей.
Tmax - Максимальная температура - максимум температуры воздуха на высоте 2 м над землей.
R - Количество осадков - Количество выпавших осадков за период времени, мм. При наведении курсора мыши на число - период времени, за который выпало указанное количество осадков.
R24 - Количество осадков - Количество выпавших осадков за 24 часа, мм.
S - Снежный покров - Высота снежного покрова, см. При наведении курсора мыши на число - состояние снежного покрова и степень покрытия местности в баллах.